SCP
-0 -0 -0 -0 -0 -0 -0 -0 -0 -0 -0 -0 -0 -0 -0 -0 -0 -0 -0 -0 -0 -0 -0 -0 0 0 0 0 -0 -0 0 0 0 0 0 0 0 0 0 0 0 0 0 0 0 0 0
-0 -0 -0 -0 -0 -0 -0 -0 -0 -0 -0 -0 -0 -0 -0 -0 -0 -0 -0 -0 -0 -0 -0 0 0 0 0 0 0 0 0 0 0 0 0 0 0 0 0 0 0 0 0 0 0 0 0
0 0 0 -0 -0 0 0 -0 -0 -0 -0 -0 -0 -0 -0 -0 -0 -0 -0 -0 -0 -0 -0 0 0 0 0 -0 0 0 0 0 0 0 0 0 0 0 0 0 0 0 0 0 0 0 0
0 0 0 0 0 0 0 -0 -0 -0 -0 -0 -0 -0 -0 -0 -0 -0 -0 -0 -0 0 0 0 0 0 0 0 0 0 0 0 0 0 0 0 0 0 0 0 0 0 0 0 0 0 0
0 0 0 0 0 0 0 -0 -0 -0 -0 -0 -0 -0 -0 -0 -0 -0 -0 -0 -0 0 0 0 0 0 0 0 0 -0 0 -0 -0 -0 0 0 0 0 0 0 0 0 0 0 0 0 0
0 0 0 0 0 0 0 -0 -0 -0 -0 -0 -0 -0 -0 -0 -0 -0 -0 0 0 0 0 0 0 0 0 0 0 0 -0 -0 -0 0 0 0 0 0 0 0 0 0 0 0 0 0 0
-0 0 0 0 0 0 0 -0 -0 -0 -0 -0 -0 -0 -0 -0 -0 -0 0 0 0 0 0 0 0 0 0 0 0 0 0 0 0 0 0 0 0 0 0 0 0 0 0 0 0 0 0
-0 -0 0 0 0 0 0 -0 -0 -0 -0 -0 -0 -0 -0 -0 -0 0 0 0 0 0 0 0 0 0 0 0 0 0 0 0 0 0 0 0 0 0 0 0 0 0 0 0 0 0 0
-0 0 0 0 0 0 -0 -0 -0 -0 -0 -0 -0 -0 0 0 0 0 0 0 0 0 0 0 0 0 0 0 0 -0 0 0 0 0 0 0 0 0 0 0 0 0 0 0 0 0 0
-0 -0 0 0 0 0 0 -0 -0 -0 -0 -0 -0 -0 0 0 0 0 0 0 0 0 0 0 0 -0 0 0 0 0 0 0 0 0 0 0 0 0 0 0 0 0 0 0 0 0 0
0 -0 0 0 0 0 0 -0 -0 -0 -0 -0 -0 -0 0 0 0 0 0 0 0 0 0 0 0 0 0 0 0 0 0 0 0 0 0 0 0 0 0 0 0 0 0 0 0 0 0
0 -0 -0 -0 -0 -0 -0 -0 -0 -0 -0 -0 -0 0 0 0 0 0 0 0 0 0 0 0 0 0 0 0 0 0 0 0 0 0 0 0 0 0 0 0 0 0 0 0 0 0 0
0 0 0 -0 -0 -0 0 0 0 0 0 0 0 0 0 0 0 0 0 0 0 0 0 0 0 0 0 0 0 0 0 0 0 0 0 0 0 0 0 0 0 0 0 0 0 0 0
0 0 0 -0 -0 0 0 0 0 0 0 0 0 0 0 0 0 0 0 0 0 0 0 0 0 0 0 0 0 0 0 0 0 0 0 0 0 0 0 0 0 0 0 0 0 0 0
0 0 0 0 0 0 0 0 0 0 0 0 0 0 0 0 0 0 0 0 0 0 0 0 0 0 0 0 0 0 0 0 0 0 0 0 0 0 0 0 0 0 0 0 0 0 0
0 0 0 0 -0 -0 -0 0 -0 -0 0 0 0 0 0 0 0 0 0 0 0 0 0 0 0 0 0 0 0 0 0 0 0 0 0 0 0 0 0 0 0 0 0 0 0 0 0
0 0 0 0 -0 -0 -0 -0 0 -0 0 0 0 0 0 0 0 0 0 0 0 0 0 0 0 0 0 0 0 0 0 0 0 0 0 0 0 0 0 0 0 0 0 0 0 0 0
0 0 0 0 0 -0 -0 0 0 0 -0 0 0 0 0 0 0 0 0 0 0 0 0 0 0 0 0 0 0 0 0 0 0 0 0 0 0 0 0 0 0 0 0 0 0 0 0
0 0 0 0 0 0 0 0 0 0 0 0 0 0 0 0 0 0 0 0 0 0 0 0 0 0 0 0 0 0 0 0 0 0 0 0 0 0 0 0 0 0 0 0 0 0 0
0 0 0 0 0 0 0 0 0 0 0 0 0 0 0 0 0 0 0 0 0 0 0 0 0 0 0 0 0 0 0 0 0 0 0 0 0 0 0 0 0 0 0 0 0 0 0
0 0 0 0 0 0 0 0 0 0 0 0 0 0 0 0 0 0 0 0 0 0 0 0 0 0 0 0 0 0 0 0 0 0 0 0 0 0 0 0 0 0 0 0 0 0 0
0 0 0 0 0 0 0 0 0 0 0 0 0 0 0 0 0 0 0 0 0 0 0 0 0 0 0 0 0 0 0 0 0 0 0 0 0 0 0 0 0 0 0 0 0 0 0
0 0 0 0 0 0 0 0 0 0 0 0 0 0 0 0 0 0 0 0 0 0 0 0 0 0 0 0 0 0 0 0 0 0 0 0 0 0 0 0 0 0 0 0 0 0 0
0 0 0 0 0 0 0 0 0 0 0 0 0 0 0 0 0 0 0 0 0 0 0 0 0 0 0 0 0 0 0 0 0 0 0 0 0 0 0 0 0 0 0 0 0 0 0
0 0 0 0 0 0 0 0 0 0 0 0 0 0 0 0 0 0 0 0 0 0 0 0 0 0 0 0 0 0 0 0 0 0 0 0 0 0 0 0 0 0 0 0 0 0 0
0 0 0 0 0 0 0 0 0 0 0 0 0 0 0 0 0 0 0 0 0 0 0 0 0 0 0 0 0 0 0 0 0 0 0 0 0 0 0 0 0 0 0 0 0 0 0
0 0 0 0 0 0 0 0 0 0 0 0 0 0 0 0 0 0 0 0 0 0 0 0 0 0 0 0 0 0 0 0 0 0 0 0 0 0 0 0 0 0 0 0 0 0 0
0 0 0 0 0 0 0 0 0 0 0 0 0 0 0 0 0 0 0 0 0 0 0 0 0 0 0 0 0 0 0 0 0 0 0 0 0 0 0 0 0 0 0 0 0 0 0
0 0 0 0 0 0 0 0 0 0 0 0 0 0 0 0 0 0 0 0 0 0 0 0 0 0 0 0 0 0 0 0 0 0 0 0 0 0 0 0 0 0 0 0 0 0 0
Wind_Speed_500mb
55 57 59 60 61 62 63 63 61 58 54 50 46 42 38 36 32 29 27 26 23 17 15 14 14 15 18 12 14 13 4 4 18 22 17 10 7 5 5 5 3 9 13 24 40 47 38
55 58 60 63 64 64 65 65 63 61 56 52 49 45 40 37 34 31 27 25 23 17 15 15 16 15 18 10 5 9 14 14 15 24 17 13 8 18 13 5 1 7 15 26 17 19 14
56 59 61 63 65 66 66 67 65 63 60 54 49 46 42 39 37 33 28 24 21 16 14 15 17 19 26 36 12 10 12 14 19 18 9 7 11 4 9 11 8 13 11 13 6 3 5
56 60 63 66 67 67 67 66 66 65 63 57 52 47 44 42 39 35 28 20 16 12 12 15 17 19 20 15 22 27 15 15 21 22 15 11 11 12 6 11 14 10 7 8 9 1 4
57 61 65 68 69 68 68 67 68 67 66 61 54 48 44 41 37 35 24 13 14 13 13 14 15 14 21 12 26 32 20 24 26 22 18 21 18 5 2 8 10 10 7 7 17 9 3
57 60 64 69 71 70 67 68 70 70 68 65 58 49 42 39 32 25 16 11 17 9 9 9 15 10 20 3 16 34 26 23 26 18 25 20 7 4 7 8 9 8 5 4 9 11 7
56 61 66 68 70 70 69 69 70 71 71 68 62 54 43 36 23 14 18 5 14 5 17 23 35 37 53 34 19 13 33 42 43 20 7 2 4 13 17 15 12 7 7 10 15 16 2
57 62 66 68 70 70 70 72 72 72 72 70 66 57 46 35 22 8 16 13 24 22 30 41 52 64 61 41 21 31 20 33 21 15 6 7 15 18 7 7 11 13 9 19 18 22 12
56 60 64 65 68 70 71 73 75 73 71 70 67 61 48 36 19 8 3 17 17 25 10 37 28 37 59 45 36 51 20 42 12 15 13 14 23 9 6 9 14 14 12 12 19 4 6
56 58 61 66 69 72 73 74 76 75 71 68 65 61 52 36 8 6 4 17 20 18 8 14 9 10 22 20 14 51 44 33 7 22 15 11 14 16 10 14 4 7 14 12 7 6 7
54 56 60 67 71 72 75 77 78 77 72 65 62 59 46 34 21 2 19 22 18 2 8 7 5 3 29 22 4 18 57 42 19 14 14 18 8 10 7 14 9 17 9 6 8 6 6
53 59 62 70 74 73 78 81 80 78 77 65 60 52 41 27 11 13 24 26 6 10 13 9 8 4 10 9 5 3 16 49 34 11 2 20 8 11 14 5 9 11 2 12 9 7 3
55 60 62 68 72 68 74 79 83 77 78 71 58 48 31 12 11 19 23 7 8 7 11 10 8 12 3 11 12 13 7 11 12 8 7 9 12 4 3 7 10 12 10 6 8 8 9
58 61 63 68 64 67 74 79 85 82 73 72 54 40 12 6 15 29 15 10 3 5 6 8 10 16 8 13 7 15 7 6 16 9 5 9 10 9 9 8 5 7 8 10 11 6 8
57 61 66 60 62 68 74 79 84 86 75 67 53 24 15 10 17 23 11 6 10 6 9 15 16 7 9 11 5 6 8 7 9 13 5 1 4 7 14 9 6 3 7 3 6 4 6
61 61 58 54 60 67 71 75 80 84 76 66 53 14 16 20 20 11 8 8 5 6 10 8 9 13 11 12 9 12 8 12 6 15 3 2 5 5 4 5 21 11 2 5 6 5 9
57 52 52 54 63 68 70 75 77 79 76 64 36 6 23 25 8 3 6 9 3 9 8 9 8 9 9 11 10 12 20 10 17 10 22 11 3 10 2 7 6 7 5 9 6 7 10
49 49 55 57 64 66 68 71 69 72 74 64 32 7 31 16 11 5 2 6 16 5 10 9 9 6 5 7 7 9 8 11 21 8 8 9 3 3 7 14 7 5 7 9 9 5 3
49 54 58 60 62 62 64 66 64 60 62 59 38 16 22 18 6 5 12 7 6 9 7 4 3 3 4 3 2 6 10 16 27 11 4 3 4 4 12 11 8 13 6 7 6 5 11
53 58 59 60 59 58 59 63 61 52 48 39 19 9 13 20 12 5 9 7 9 12 7 4 7 10 8 7 8 5 8 3 12 5 17 5 6 12 11 10 3 7 9 2 8 5 6
55 56 55 53 52 54 55 57 59 49 39 24 14 4 7 8 9 11 7 10 9 3 4 6 6 3 6 4 5 4 2 8 7 5 7 8 7 5 8 10 4 8 13 12 12 13 12
54 53 51 49 49 50 52 51 52 49 35 15 12 11 11 15 19 11 9 9 15 19 1 2 8 7 5 9 10 7 5 5 10 4 6 3 5 4 9 14 12 12 16 18 17 14 13
50 48 47 46 45 46 46 46 44 44 35 12 14 6 8 11 11 5 4 9 9 18 10 14 3 5 6 9 26 19 20 16 21 12 9 7 10 6 7 5 4 10 10 9 7 4 4
48 46 45 44 41 41 41 40 37 35 31 20 14 11 6 8 5 2 11 15 12 18 8 13 8 4 3 6 6 8 18 31 24 22 29 13 12 6 6 5 2 8 5 4 2 2 4
46 44 43 41 39 37 35 34 32 28 23 18 7 5 5 7 9 21 12 9 20 21 9 6 10 9 2 2 5 7 8 11 5 10 8 11 9 5 6 4 9 9 1 3 4 9 7
43 41 40 39 36 34 31 30 29 27 21 14 8 8 7 7 8 5 7 15 5 6 10 8 17 14 7 6 4 6 5 4 6 1 13 10 10 8 4 3 8 9 4 8 9 9 9
40 39 37 35 34 31 28 28 27 25 21 18 10 12 10 12 19 15 5 7 14 5 5 11 17 12 3 4 4 6 7 3 5 2 5 4 4 8 6 6 11 9 4 7 6 10 13
36 36 35 32 30 28 27 26 23 23 22 20 10 14 14 14 41 52 23 9 5 6 1 12 13 4 7 3 5 6 5 3 2 3 3 6 5 5 3 3 9 4 3 7 9 17 33
34 33 32 29 28 27 25 20 21 23 20 20 8 14 25 29 36 36 56 64 63 46 39 16 5 2 2 4 1 2 2 4 2 4 8 2 9 6 13 10 10 6 12 33 20 39 45
Wind_Direction_500mb
32 29 26 22 18 16 14 12 9 7 4 359 354 351 347 340 335 330 326 325 324 304 277 275 283 299 314 297 259 216 200 259 178 180 194 214 263 244 249 249 241 204 261 283 296 288 252
28 25 22 18 15 13 11 9 7 4 2 359 354 351 346 340 336 330 321 319 319 302 278 266 274 286 295 281 241 236 212 219 189 196 211 226 277 309 282 303 179 304 263 283 305 305 223
24 21 17 14 11 8 6 5 3 2 359 356 353 350 346 340 336 333 323 315 314 302 285 270 274 285 281 262 246 198 199 217 214 187 220 296 306 323 329 314 320 289 312 339 272 227 215
19 16 13 10 7 6 3 1 1 359 358 355 351 348 346 342 336 334 323 312 312 301 286 279 280 285 265 254 231 197 181 209 198 213 247 278 264 289 246 298 341 1 48 3 279 10 296
13 11 9 8 4 2 1 360 359 359 356 353 350 346 346 341 336 337 328 326 323 296 272 278 276 273 267 237 216 188 191 189 197 218 244 279 262 260 40 79 359 1 247 281 319 199 219
9 8 7 5 3 1 359 358 358 357 356 353 349 344 344 342 338 352 359 350 347 303 267 277 254 278 246 216 239 212 209 210 233 257 272 251 238 76 45 77 218 249 279 305 256 289 140
4 3 2 3 0 359 358 357 357 356 354 353 349 342 342 343 334 9 19 22 1 337 294 257 267 256 273 272 277 244 222 217 234 250 198 24 83 234 233 198 212 270 263 271 279 271 158
1 1 1 0 360 358 357 356 355 353 352 350 349 341 338 343 321 317 54 62 15 294 293 279 264 258 259 256 286 253 246 195 190 214 183 22 243 232 250 226 223 240 241 271 277 266 177
3 1 359 359 358 357 357 356 353 350 350 348 347 341 335 342 317 255 255 16 346 343 277 301 267 252 247 238 235 249 205 196 170 186 179 181 241 56 212 287 268 245 196 234 224 343 331
0 0 359 358 357 355 354 354 352 350 347 346 345 340 332 339 318 296 161 314 318 334 23 278 252 249 176 177 224 218 215 206 201 195 182 214 274 250 265 260 223 275 225 246 247 106 243
0 359 359 357 354 353 351 352 352 350 347 343 344 338 332 333 312 10 311 300 317 24 333 255 245 175 155 172 146 206 218 203 183 189 123 238 238 254 204 229 208 241 311 254 230 174 91
356 356 354 352 352 352 351 350 351 349 347 346 342 338 334 331 353 334 318 309 307 46 253 316 338 302 159 208 253 98 182 208 223 188 169 230 216 179 220 244 209 253 307 37 48 94 18
350 349 350 350 349 350 350 350 350 351 347 346 342 339 340 356 16 338 319 307 48 163 323 342 342 344 357 356 16 4 156 167 182 145 237 296 250 286 85 57 0 57 58 339 330 356 219
344 346 347 346 348 349 350 350 348 348 351 342 344 341 3 65 4 357 2 51 216 276 310 348 339 316 79 18 34 353 39 55 27 13 142 163 299 18 336 138 174 49 137 156 224 197 237
341 340 340 345 347 348 350 350 347 344 353 343 347 358 66 15 342 340 19 81 216 315 333 338 324 30 4 359 36 53 65 67 32 30 111 117 215 11 30 26 69 292 57 201 133 31 87
337 341 343 347 346 346 347 348 349 344 351 347 344 38 40 356 331 322 74 219 253 354 341 6 7 23 352 360 20 18 75 351 12 17 26 197 327 89 300 23 13 92 241 21 9 243 233
339 345 344 343 344 344 345 348 349 344 349 355 350 31 360 348 339 117 143 240 308 19 45 37 32 10 26 9 2 352 25 22 0 1 43 30 59 295 339 77 164 359 12 62 118 136 201
340 340 340 338 339 341 342 345 351 347 348 358 359 356 355 356 49 7 56 304 313 359 41 39 104 83 79 4 351 3 78 20 0 18 53 346 108 288 282 339 305 114 106 97 115 251 257
337 336 335 335 336 337 339 341 351 353 350 353 343 311 5 2 83 336 315 301 11 14 9 54 67 58 62 52 322 59 84 39 35 47 70 15 5 21 334 352 3 75 87 123 116 89 219
329 329 330 331 332 334 337 340 347 354 349 354 348 349 336 45 41 17 344 289 332 354 68 104 112 78 60 39 19 345 16 94 27 72 54 99 153 167 199 228 185 315 325 276 144 126 241
321 323 324 326 328 330 334 337 340 351 352 357 4 353 345 312 326 339 303 318 314 265 105 56 94 67 160 170 353 31 358 324 341 24 65 96 205 199 253 255 247 235 244 247 212 218 204
319 319 320 323 325 328 332 335 337 345 0 350 5 356 337 293 301 321 351 8 1 339 151 140 129 156 133 160 189 215 189 188 232 323 99 3 216 136 238 243 236 247 242 240 247 253 249
314 315 317 319 321 325 328 332 338 343 357 14 5 334 313 298 328 351 14 329 356 352 29 59 205 195 226 235 202 223 232 223 229 199 156 182 146 97 268 356 10 312 244 217 230 228 236
311 312 312 314 317 320 323 329 337 343 351 356 356 358 340 281 308 315 335 313 307 307 264 312 339 231 265 177 195 250 263 267 257 248 198 157 133 129 213 34 23 243 305 87 100 96 324
307 307 308 310 313 316 319 323 329 335 340 337 318 328 304 284 287 303 329 318 328 324 300 306 355 331 208 151 55 10 335 349 13 19 145 146 131 100 130 184 299 313 74 89 93 276 214
302 302 303 306 309 311 314 317 321 325 327 326 292 301 274 300 245 322 313 304 302 310 327 306 321 333 309 82 85 156 226 256 300 288 64 91 93 112 144 152 225 243 196 107 92 280 208
300 300 302 303 304 306 308 312 314 317 321 318 291 277 273 271 269 272 230 293 287 300 277 303 337 324 1 104 140 168 224 250 261 214 339 21 72 174 167 206 279 248 189 74 102 246 200
299 299 299 300 300 302 305 308 309 313 316 315 283 247 282 266 278 278 268 215 273 313 181 318 344 308 13 107 143 213 188 240 333 273 195 178 165 212 127 154 275 167 112 180 228 309 304
299 298 298 297 296 298 303 305 311 311 318 325 310 256 272 270 266 280 275 278 275 278 265 239 245 265 242 90 124 84 45 28 102 277 347 282 179 197 173 221 217 185 282 295 290 311 303
Wind_Speed_850mb
55 57 59 60 61 62 63 63 61 58 54 50 46 42 38 36 32 29 27 26 23 17 15 14 14 15 18 12 14 13 4 4 18 22 17 10 7 5 5 5 3 9 13 24 40 47 38
55 58 60 63 64 64 65 65 63 61 56 52 49 45 40 37 34 31 27 25 23 17 15 15 16 15 18 10 5 9 14 14 15 24 17 13 8 18 13 5 1 7 15 26 17 19 14
56 59 61 63 65 66 66 67 65 63 60 54 49 46 42 39 37 33 28 24 21 16 14 15 17 19 26 36 12 10 12 14 19 18 9 7 11 4 9 11 8 13 11 13 6 3 5
56 60 63 66 67 67 67 66 66 65 63 57 52 47 44 42 39 35 28 20 16 12 12 15 17 19 20 15 22 27 15 15 21 22 15 11 11 12 6 11 14 10 7 8 9 1 4
57 61 65 68 69 68 68 67 68 67 66 61 54 48 44 41 37 35 24 13 14 13 13 14 15 14 21 12 26 32 20 24 26 22 18 21 18 5 2 8 10 10 7 7 17 9 3
57 60 64 69 71 70 67 68 70 70 68 65 58 49 42 39 32 25 16 11 17 9 9 9 15 10 20 3 16 34 26 23 26 18 25 20 7 4 7 8 9 8 5 4 9 11 7
56 61 66 68 70 70 69 69 70 71 71 68 62 54 43 36 23 14 18 5 14 5 17 23 35 37 53 34 19 13 33 42 43 20 7 2 4 13 17 15 12 7 7 10 15 16 2
57 62 66 68 70 70 70 72 72 72 72 70 66 57 46 35 22 8 16 13 24 22 30 41 52 64 61 41 21 31 20 33 21 15 6 7 15 18 7 7 11 13 9 19 18 22 12
56 60 64 65 68 70 71 73 75 73 71 70 67 61 48 36 19 8 3 17 17 25 10 37 28 37 59 45 36 51 20 42 12 15 13 14 23 9 6 9 14 14 12 12 19 4 6
56 58 61 66 69 72 73 74 76 75 71 68 65 61 52 36 8 6 4 17 20 18 8 14 9 10 22 20 14 51 44 33 7 22 15 11 14 16 10 14 4 7 14 12 7 6 7
54 56 60 67 71 72 75 77 78 77 72 65 62 59 46 34 21 2 19 22 18 2 8 7 5 3 29 22 4 18 57 42 19 14 14 18 8 10 7 14 9 17 9 6 8 6 6
53 59 62 70 74 73 78 81 80 78 77 65 60 52 41 27 11 13 24 26 6 10 13 9 8 4 10 9 5 3 16 49 34 11 2 20 8 11 14 5 9 11 2 12 9 7 3
55 60 62 68 72 68 74 79 83 77 78 71 58 48 31 12 11 19 23 7 8 7 11 10 8 12 3 11 12 13 7 11 12 8 7 9 12 4 3 7 10 12 10 6 8 8 9
58 61 63 68 64 67 74 79 85 82 73 72 54 40 12 6 15 29 15 10 3 5 6 8 10 16 8 13 7 15 7 6 16 9 5 9 10 9 9 8 5 7 8 10 11 6 8
57 61 66 60 62 68 74 79 84 86 75 67 53 24 15 10 17 23 11 6 10 6 9 15 16 7 9 11 5 6 8 7 9 13 5 1 4 7 14 9 6 3 7 3 6 4 6
61 61 58 54 60 67 71 75 80 84 76 66 53 14 16 20 20 11 8 8 5 6 10 8 9 13 11 12 9 12 8 12 6 15 3 2 5 5 4 5 21 11 2 5 6 5 9
57 52 52 54 63 68 70 75 77 79 76 64 36 6 23 25 8 3 6 9 3 9 8 9 8 9 9 11 10 12 20 10 17 10 22 11 3 10 2 7 6 7 5 9 6 7 10
49 49 55 57 64 66 68 71 69 72 74 64 32 7 31 16 11 5 2 6 16 5 10 9 9 6 5 7 7 9 8 11 21 8 8 9 3 3 7 14 7 5 7 9 9 5 3
49 54 58 60 62 62 64 66 64 60 62 59 38 16 22 18 6 5 12 7 6 9 7 4 3 3 4 3 2 6 10 16 27 11 4 3 4 4 12 11 8 13 6 7 6 5 11
53 58 59 60 59 58 59 63 61 52 48 39 19 9 13 20 12 5 9 7 9 12 7 4 7 10 8 7 8 5 8 3 12 5 17 5 6 12 11 10 3 7 9 2 8 5 6
55 56 55 53 52 54 55 57 59 49 39 24 14 4 7 8 9 11 7 10 9 3 4 6 6 3 6 4 5 4 2 8 7 5 7 8 7 5 8 10 4 8 13 12 12 13 12
54 53 51 49 49 50 52 51 52 49 35 15 12 11 11 15 19 11 9 9 15 19 1 2 8 7 5 9 10 7 5 5 10 4 6 3 5 4 9 14 12 12 16 18 17 14 13
50 48 47 46 45 46 46 46 44 44 35 12 14 6 8 11 11 5 4 9 9 18 10 14 3 5 6 9 26 19 20 16 21 12 9 7 10 6 7 5 4 10 10 9 7 4 4
48 46 45 44 41 41 41 40 37 35 31 20 14 11 6 8 5 2 11 15 12 18 8 13 8 4 3 6 6 8 18 31 24 22 29 13 12 6 6 5 2 8 5 4 2 2 4
46 44 43 41 39 37 35 34 32 28 23 18 7 5 5 7 9 21 12 9 20 21 9 6 10 9 2 2 5 7 8 11 5 10 8 11 9 5 6 4 9 9 1 3 4 9 7
43 41 40 39 36 34 31 30 29 27 21 14 8 8 7 7 8 5 7 15 5 6 10 8 17 14 7 6 4 6 5 4 6 1 13 10 10 8 4 3 8 9 4 8 9 9 9
40 39 37 35 34 31 28 28 27 25 21 18 10 12 10 12 19 15 5 7 14 5 5 11 17 12 3 4 4 6 7 3 5 2 5 4 4 8 6 6 11 9 4 7 6 10 13
36 36 35 32 30 28 27 26 23 23 22 20 10 14 14 14 41 52 23 9 5 6 1 12 13 4 7 3 5 6 5 3 2 3 3 6 5 5 3 3 9 4 3 7 9 17 33
34 33 32 29 28 27 25 20 21 23 20 20 8 14 25 29 36 36 56 64 63 46 39 16 5 2 2 4 1 2 2 4 2 4 8 2 9 6 13 10 10 6 12 33 20 39 45
Wind_Direction_850mb
32 29 26 22 18 16 14 12 9 7 4 359 354 351 347 340 335 330 326 325 324 304 277 275 283 299 314 297 259 216 200 259 178 180 194 214 263 244 249 249 241 204 261 283 296 288 252
28 25 22 18 15 13 11 9 7 4 2 359 354 351 346 340 336 330 321 319 319 302 278 266 274 286 295 281 241 236 212 219 189 196 211 226 277 309 282 303 179 304 263 283 305 305 223
24 21 17 14 11 8 6 5 3 2 359 356 353 350 346 340 336 333 323 315 314 302 285 270 274 285 281 262 246 198 199 217 214 187 220 296 306 323 329 314 320 289 312 339 272 227 215
19 16 13 10 7 6 3 1 1 359 358 355 351 348 346 342 336 334 323 312 312 301 286 279 280 285 265 254 231 197 181 209 198 213 247 278 264 289 246 298 341 1 48 3 279 10 296
13 11 9 8 4 2 1 360 359 359 356 353 350 346 346 341 336 337 328 326 323 296 272 278 276 273 267 237 216 188 191 189 197 218 244 279 262 260 40 79 359 1 247 281 319 199 219
9 8 7 5 3 1 359 358 358 357 356 353 349 344 344 342 338 352 359 350 347 303 267 277 254 278 246 216 239 212 209 210 233 257 272 251 238 76 45 77 218 249 279 305 256 289 140
4 3 2 3 0 359 358 357 357 356 354 353 349 342 342 343 334 9 19 22 1 337 294 257 267 256 273 272 277 244 222 217 234 250 198 24 83 234 233 198 212 270 263 271 279 271 158
1 1 1 0 360 358 357 356 355 353 352 350 349 341 338 343 321 317 54 62 15 294 293 279 264 258 259 256 286 253 246 195 190 214 183 22 243 232 250 226 223 240 241 271 277 266 177
3 1 359 359 358 357 357 356 353 350 350 348 347 341 335 342 317 255 255 16 346 343 277 301 267 252 247 238 235 249 205 196 170 186 179 181 241 56 212 287 268 245 196 234 224 343 331
0 0 359 358 357 355 354 354 352 350 347 346 345 340 332 339 318 296 161 314 318 334 23 278 252 249 176 177 224 218 215 206 201 195 182 214 274 250 265 260 223 275 225 246 247 106 243
0 359 359 357 354 353 351 352 352 350 347 343 344 338 332 333 312 10 311 300 317 24 333 255 245 175 155 172 146 206 218 203 183 189 123 238 238 254 204 229 208 241 311 254 230 174 91
356 356 354 352 352 352 351 350 351 349 347 346 342 338 334 331 353 334 318 309 307 46 253 316 338 302 159 208 253 98 182 208 223 188 169 230 216 179 220 244 209 253 307 37 48 94 18
350 349 350 350 349 350 350 350 350 351 347 346 342 339 340 356 16 338 319 307 48 163 323 342 342 344 357 356 16 4 156 167 182 145 237 296 250 286 85 57 0 57 58 339 330 356 219
344 346 347 346 348 349 350 350 348 348 351 342 344 341 3 65 4 357 2 51 216 276 310 348 339 316 79 18 34 353 39 55 27 13 142 163 299 18 336 138 174 49 137 156 224 197 237
341 340 340 345 347 348 350 350 347 344 353 343 347 358 66 15 342 340 19 81 216 315 333 338 324 30 4 359 36 53 65 67 32 30 111 117 215 11 30 26 69 292 57 201 133 31 87
337 341 343 347 346 346 347 348 349 344 351 347 344 38 40 356 331 322 74 219 253 354 341 6 7 23 352 360 20 18 75 351 12 17 26 197 327 89 300 23 13 92 241 21 9 243 233
339 345 344 343 344 344 345 348 349 344 349 355 350 31 360 348 339 117 143 240 308 19 45 37 32 10 26 9 2 352 25 22 0 1 43 30 59 295 339 77 164 359 12 62 118 136 201
340 340 340 338 339 341 342 345 351 347 348 358 359 356 355 356 49 7 56 304 313 359 41 39 104 83 79 4 351 3 78 20 0 18 53 346 108 288 282 339 305 114 106 97 115 251 257
337 336 335 335 336 337 339 341 351 353 350 353 343 311 5 2 83 336 315 301 11 14 9 54 67 58 62 52 322 59 84 39 35 47 70 15 5 21 334 352 3 75 87 123 116 89 219
329 329 330 331 332 334 337 340 347 354 349 354 348 349 336 45 41 17 344 289 332 354 68 104 112 78 60 39 19 345 16 94 27 72 54 99 153 167 199 228 185 315 325 276 144 126 241
321 323 324 326 328 330 334 337 340 351 352 357 4 353 345 312 326 339 303 318 314 265 105 56 94 67 160 170 353 31 358 324 341 24 65 96 205 199 253 255 247 235 244 247 212 218 204
319 319 320 323 325 328 332 335 337 345 0 350 5 356 337 293 301 321 351 8 1 339 151 140 129 156 133 160 189 215 189 188 232 323 99 3 216 136 238 243 236 247 242 240 247 253 249
314 315 317 319 321 325 328 332 338 343 357 14 5 334 313 298 328 351 14 329 356 352 29 59 205 195 226 235 202 223 232 223 229 199 156 182 146 97 268 356 10 312 244 217 230 228 236
311 312 312 314 317 320 323 329 337 343 351 356 356 358 340 281 308 315 335 313 307 307 264 312 339 231 265 177 195 250 263 267 257 248 198 157 133 129 213 34 23 243 305 87 100 96 324
307 307 308 310 313 316 319 323 329 335 340 337 318 328 304 284 287 303 329 318 328 324 300 306 355 331 208 151 55 10 335 349 13 19 145 146 131 100 130 184 299 313 74 89 93 276 214
302 302 303 306 309 311 314 317 321 325 327 326 292 301 274 300 245 322 313 304 302 310 327 306 321 333 309 82 85 156 226 256 300 288 64 91 93 112 144 152 225 243 196 107 92 280 208
300 300 302 303 304 306 308 312 314 317 321 318 291 277 273 271 269 272 230 293 287 300 277 303 337 324 1 104 140 168 224 250 261 214 339 21 72 174 167 206 279 248 189 74 102 246 200
299 299 299 300 300 302 305 308 309 313 316 315 283 247 282 266 278 278 268 215 273 313 181 318 344 308 13 107 143 213 188 240 333 273 195 178 165 212 127 154 275 167 112 180 228 309 304
299 298 298 297 296 298 303 305 311 311 318 325 310 256 272 270 266 280 275 278 275 278 265 239 245 265 242 90 124 84 45 28 102 277 347 282 179 197 173 221 217 185 282 295 290 311 303